Regional Weather Roundup
Issued by NWS

Home | Current Version | Previous Version | Graphics & Text | Print | Product List | Glossary On
Versions: 1 2 3 4 5 6 7 8 9 10 11 12 13 14 15 16 17 18 19 20 21 22 23 24 25 26 27 28 29 30 31 32 33 34 35 36 37 38 39 40 41 42 43 44 45 46 47 48 49 50
000
ASUS43 KDMX 300607
RWRIA

WEATHER ROUNDUP FOR IOWA
NATIONAL WEATHER SERVICE DES MOINES IA
100 AM CDT WED JUL 30 2014

NOTE: "FAIR" INDICATES FEW OR NO CLOUDS BELOW 12,000 FEET WITH NO
SIGNIFICANT WEATHER AND/OR OBSTRUCTIONS TO VISIBILITY.

* - THESE STATIONS ARE NOT NWS STATIONS...THUS NOT UNDER NWS
QUALITY CONTROL.  THEY ALSO DO NOT REPORT WEATHER SUCH
AS PRECIPITATION OR FOG.

IAZ001>003-012>014-020>022-031>034-043>046-300700-
   NORTHWEST IOWA

CITY           SKY/WX    TMP DP  RH WIND       PRES   REMARKS
CARROLL *      PTCLDY    54  52  94 W5        30.13S
CHEROKEE *     CLEAR     55  55  99 CALM      30.14R
DENISON *      CLEAR     54  54 100 CALM      30.12S
LE MARS *      CLEAR     54  54 100 CALM      30.15R
ORANGE CITY *  CLEAR     59  54  82 NW3       30.14S
SHELDON *      CLEAR     52  52 100 CALM      30.13S
SIOUX CITY     CLEAR     56  54  93 CALM      30.14S
6HR MIN TEMP:  56; 6HR MAX TEMP:  77;

SPENCER        CLEAR     54  52  93 NW3       30.13S
6HR MIN TEMP:  53; 6HR MAX TEMP:  73;

STORM LAKE *   CLEAR     61  55  82 NW6       30.14S
$$

IAZ055>058-069>071-079>083-090>094-300700-
   SOUTHWEST IOWA

CITY           SKY/WX    TMP DP  RH WIND       PRES   REMARKS
ATLANTIC *     CLEAR     55  54  94 CALM      30.13S
AUDUBON *      CLEAR     54  52  94 CALM      30.15S
CLARINDA *     CLEAR     55  54  94 CALM      30.15R
COUNCIL BLFS *   N/A     63  61  94 N3        30.14R
CRESTON *      CLEAR     61  55  82 NW6       30.13F
HARLAN  *      CLEAR     55  55 100 CALM      30.17S
LAMONI         CLEAR     61  54  77 NW5       30.12S
6HR MIN TEMP:  60; 6HR MAX TEMP:  74;

RED OAK *      CLEAR     55  54  94 CALM      30.14R
SHENANDOAH *   CLEAR     57  55  94 CALM      30.14S FOG
$$

IAZ047>049-059>061-072>074-084-300700-
   CENTRAL IOWA

CITY           SKY/WX    TMP DP  RH WIND       PRES   REMARKS
AMES           CLEAR     57  55  93 NW3       30.10S
6HR MIN TEMP:  57; 6HR MAX TEMP:  75;

ANKENY *       CLEAR     57  55  94 CALM      30.10S
CHARITON *     CLEAR     61  55  82 W5        30.11S
DES MOINES     CLEAR     63  56  78 CALM      30.10S
6HR MIN TEMP:  63; 6HR MAX TEMP:  78;

GRINNELL*      CLEAR     59  55  88 W3        30.10S
KNOXVILLE *    CLEAR     59  55  88 W8        30.09S
MARSHALLTOWN   CLEAR     58  56  93 NW6       30.09S
6HR MIN TEMP:  58; 6HR MAX TEMP:  74;

PELLA *        CLEAR     60  56  87 W3        30.11S
PERRY *          N/A     57  55  94 W6        30.11S
$$

IAZ004>006-015-016-023>025-035-036-300700-
   NORTH CENTRAL IOWA

CITY           SKY/WX    TMP DP  RH WIND       PRES   REMARKS
ALGONA *       CLEAR     59  55  88 W7        30.12S
CLARION *      CLEAR     55  55 100 CALM      30.11S
ESTHERVILLE    CLEAR     56  53  90 W8        30.12S
6HR MIN TEMP:  56; 6HR MAX TEMP:  73;

FORT DODGE *   CLEAR     55  54  94 CALM      30.12S
MASON CITY     CLEAR     57  54  89 W6        30.11S
6HR MIN TEMP:  57; 6HR MAX TEMP:  74;

FOREST CITY *  CLEAR     55  55 100 CALM      30.10S
IOWA FALLS *     N/A     57  55  94 CALM      30.11S
$$

IAZ007>011-017>019-026>030-037>042-050>054-066-300700-
   NORTHEAST IOWA

CITY           SKY/WX    TMP DP  RH WIND       PRES   REMARKS
CEDAR RAPIDS   CLEAR     59  52  77 W6        30.06F
6HR MIN TEMP:  58; 6HR MAX TEMP:  74;

CHARLES CITY * PTCLDY    59  55  88 W6        30.09S
CLINTON *      CLEAR     57  55  94 CALM      30.08F
DECORAH *      CLOUDY    63  59  88 CALM      30.07S
DUBUQUE        CLEAR     57  56  96 SW3       30.06F
6HR MIN TEMP:  56; 6HR MAX TEMP:  73;

MONTICELLO *   CLEAR     57  57 100 CALM      30.06S
OELWEIN *      CLEAR     59  55  88 NW6       30.08S
WATERLOO       CLEAR     59  56  89 W3        30.07S
6HR MIN TEMP:  59; 6HR MAX TEMP:  75;

$$

IAZ064-065-067-068-078-300700-
   EAST CENTRAL IOWA

CITY           SKY/WX    TMP DP  RH WIND       PRES   REMARKS
DAVENPORT      CLEAR     60  56  86 N6        30.06S
6HR MIN TEMP:  58; 6HR MAX TEMP:  74;

IOWA CITY      CLEAR     61  58  90 CALM      30.08S
6HR MIN TEMP:  60; 6HR MAX TEMP:  76;

MT. PLEASANT * CLEAR     60  58  91 W5        30.09R
MUSCATINE *    CLEAR     63  57  82 NW7       30.06F
QUAD CITIES    CLEAR     62  58  86 CALM      30.06R
6HR MIN TEMP:  61; 6HR MAX TEMP:  77;

$$

IAZ062-063-075>077-085>089-095>099-300700-
   SOUTHEAST IOWA

CITY           SKY/WX    TMP DP  RH WIND       PRES   REMARKS
BURLINGTON     CLEAR     61  58  90 W5        30.08S
6HR MIN TEMP:  59; 6HR MAX TEMP:  75;

FAIRFIELD *    CLEAR     59  57  94 W6        30.09S
FORT MADISON * CLEAR     64  61  88 W3        30.09S
KEOKUK *       CLEAR     61  59  94 W5        30.08S
OSKALOOSA *      N/A     59  56  90 W6        30.10S
CENTERVILLE *  CLEAR     57  57 100 W5        30.12S
OTTUMWA        CLEAR     58  56  93 CALM      30.09S
6HR MIN TEMP:  58; 6HR MAX TEMP:  75;

WASHINGTON *   CLEAR     59  57  94 W7        30.08S
$$

ABBREVIATIONS USED IN REMARKS
   TC - TEMPERATURES IN CELSIUS
  WCI - WIND CHILL INDEX
   HX - HEAT INDEX
  VSB - VISIBILITY
$$



USA.gov is the U.S. government's official web portal to all federal, state and local government web resources and services.